Location: Copenhagen
(55.6670°N, 12.5830°E)
Time: 04:56:28
(UTC+02:00)

ACS3 Solar Sail - Pass Details

Date: 29 September 2024
Orbit: 959 x 1034 km, 97.5° (Epoch: 14 October)

Event Time Altitude Azimuth Distance (km) Brightness Sun altitude
Rises 18:55:44 0° 112° (ESE) 3,787 4.3 -1.7°
Reaches altitude 10° 18:58:47 10° 98° (E) 2,838 3.6 -2.2°
Drops below altitude 10° 19:08:19 10° 1° (N) 2,832 4.2 -3.5°
Enters shadow 20:16:50 -48° 159° (SSE) 10,731 7.0 -13.1°
Exits shadow 20:40:13 10° 156° (SSE) 2,812 3.8 -16.3°
Maximum altitude 20:46:34 77° 71° (ENE) 1,066 1.9 -17.1°
Sets 20:55:29 0° 347° (NNW) 3,780 5.4 -18.3°
